Location: Drocourt
(49.0571°N, 1.7669°E)
Time: 14:39:33
(UTC+00:00)

Vanguard 1 Rocket - Pass Details

Date: 16 April 2024
Orbit: 651 x 4220 km, 34.3° (Epoch: 19 May)

Event Time Altitude Azimuth Distance (km) Brightness Sun altitude
Rises 21:14:00 0° 245° (WSW) 3,753 10.8 -21.0°
Reaches altitude 10° 21:16:24 10° 235° (SW) 3,084 10.2 -21.2°
Maximum altitude 21:23:17 34° 173° (S) 2,520 9.2 -22.0°
Enters shadow 21:25:42 31° 150° (SSE) 2,903 9.3 -22.2°
